Year,Month,Day,Hour,Minute,Value (Times are PST for temperature in C)
2018,08,15,00,00,17.30
2018,08,15,00,01,17.20
2018,08,15,00,02,17.20
2018,08,15,00,03,17.20
2018,08,15,00,04,17.20
2018,08,15,00,05,17.10
2018,08,15,00,06,17.10
2018,08,15,00,07,17.10
2018,08,15,00,08,17.10
2018,08,15,00,09,17.10
2018,08,15,00,10,17.10
2018,08,15,00,11,17.00
2018,08,15,00,12,17.00
2018,08,15,00,13,17.00
2018,08,15,00,14,17.00
2018,08,15,00,15,17.00
2018,08,15,00,16,16.90
2018,08,15,00,17,16.90
2018,08,15,00,18,16.90
2018,08,15,00,19,16.90
2018,08,15,00,20,16.90
2018,08,15,00,21,16.90
2018,08,15,00,22,16.90
2018,08,15,00,23,16.90
2018,08,15,00,24,16.90
2018,08,15,00,25,16.90
2018,08,15,00,26,16.90
2018,08,15,00,27,16.90
2018,08,15,00,28,16.90
2018,08,15,00,29,16.90
2018,08,15,00,30,16.90
2018,08,15,00,31,16.90
2018,08,15,00,32,16.90
2018,08,15,00,33,16.90
2018,08,15,00,34,16.90
2018,08,15,00,35,16.90
2018,08,15,00,36,16.90
2018,08,15,00,37,16.90
2018,08,15,00,38,16.90
2018,08,15,00,39,17.00
2018,08,15,00,40,17.00
2018,08,15,00,41,17.00
2018,08,15,00,42,17.00
2018,08,15,00,43,17.00
2018,08,15,00,44,17.00
2018,08,15,00,45,17.10
2018,08,15,00,46,17.10
2018,08,15,00,47,17.10
2018,08,15,00,48,17.10
2018,08,15,00,49,17.10
2018,08,15,00,50,17.20
2018,08,15,00,51,17.20
2018,08,15,00,52,17.20
2018,08,15,00,53,17.20
2018,08,15,00,54,17.20
2018,08,15,00,55,17.20
2018,08,15,00,56,17.30
2018,08,15,00,57,17.30
2018,08,15,00,58,17.30
2018,08,15,00,59,17.30
2018,08,15,01,00,17.30
2018,08,15,01,01,17.30
2018,08,15,01,02,17.30
2018,08,15,01,03,17.30
2018,08,15,01,04,17.30
2018,08,15,01,05,17.20
2018,08,15,01,06,17.20
2018,08,15,01,07,17.20
2018,08,15,01,08,17.20
2018,08,15,01,09,17.20
2018,08,15,01,10,17.20
2018,08,15,01,11,17.20
2018,08,15,01,12,17.20
2018,08,15,01,13,17.20
2018,08,15,01,14,17.20
2018,08,15,01,15,17.20
2018,08,15,01,16,17.20
2018,08,15,01,17,17.20
2018,08,15,01,18,17.20
2018,08,15,01,19,17.10
2018,08,15,01,20,17.10
2018,08,15,01,21,17.10
2018,08,15,01,22,17.10
2018,08,15,01,23,17.10
2018,08,15,01,24,17.10
2018,08,15,01,25,17.10
2018,08,15,01,26,17.10
2018,08,15,01,27,17.20
2018,08,15,01,28,17.20
2018,08,15,01,29,17.20
2018,08,15,01,30,17.20
2018,08,15,01,31,17.20
2018,08,15,01,32,17.20
2018,08,15,01,33,17.30
2018,08,15,01,34,17.30
2018,08,15,01,35,17.30
2018,08,15,01,36,17.30
2018,08,15,01,37,17.30
2018,08,15,01,38,17.30
2018,08,15,01,39,17.30
2018,08,15,01,40,17.30
2018,08,15,01,41,17.30
2018,08,15,01,42,17.30
2018,08,15,01,43,17.20
2018,08,15,01,44,17.20
2018,08,15,01,45,17.20
2018,08,15,01,46,17.20
2018,08,15,01,47,17.20
2018,08,15,01,48,17.20
2018,08,15,01,49,17.20
2018,08,15,01,50,17.10
2018,08,15,01,51,17.10
2018,08,15,01,52,17.10
2018,08,15,01,53,17.10
2018,08,15,01,54,17.10
2018,08,15,01,55,17.00
2018,08,15,01,56,17.00
2018,08,15,01,57,17.00
2018,08,15,01,58,16.90
2018,08,15,01,59,16.90
2018,08,15,02,00,16.90
2018,08,15,02,01,16.90
2018,08,15,02,02,16.80
2018,08,15,02,03,16.80
2018,08,15,02,04,16.80
2018,08,15,02,05,16.80
2018,08,15,02,06,16.80
2018,08,15,02,07,16.80
2018,08,15,02,08,16.80
2018,08,15,02,09,16.80
2018,08,15,02,10,16.80
2018,08,15,02,11,16.90
2018,08,15,02,12,16.90
2018,08,15,02,13,16.90
2018,08,15,02,14,16.90
2018,08,15,02,15,16.90
2018,08,15,02,16,16.90
2018,08,15,02,17,16.90
2018,08,15,02,18,16.90
2018,08,15,02,19,16.80
2018,08,15,02,20,16.80
2018,08,15,02,21,16.80
2018,08,15,02,22,16.80
2018,08,15,02,23,16.80
2018,08,15,02,24,16.80
2018,08,15,02,25,16.80
2018,08,15,02,26,16.80
2018,08,15,02,27,16.80
2018,08,15,02,28,16.80
2018,08,15,02,29,16.80
2018,08,15,02,30,16.80
2018,08,15,02,31,16.70
2018,08,15,02,32,16.70
2018,08,15,02,33,16.70
2018,08,15,02,34,16.70
2018,08,15,02,35,16.60
2018,08,15,02,36,16.60
2018,08,15,02,37,16.60
2018,08,15,02,38,16.60
2018,08,15,02,39,16.50
2018,08,15,02,40,16.50
2018,08,15,02,41,16.50
2018,08,15,02,42,16.40
2018,08,15,02,43,16.40
2018,08,15,02,44,16.40
2018,08,15,02,45,16.40
2018,08,15,02,46,16.30
2018,08,15,02,47,16.30
2018,08,15,02,48,16.30
2018,08,15,02,49,16.30
2018,08,15,02,50,16.30
2018,08,15,02,51,16.30
2018,08,15,02,52,16.30
2018,08,15,02,53,16.30
2018,08,15,02,54,16.20
2018,08,15,02,55,16.20
2018,08,15,02,56,16.20
2018,08,15,02,57,16.20
2018,08,15,02,58,16.20
2018,08,15,02,59,16.20
2018,08,15,03,00,16.30
2018,08,15,03,01,16.30
2018,08,15,03,02,16.30
2018,08,15,03,03,16.30
2018,08,15,03,04,16.30
2018,08,15,03,05,16.30
2018,08,15,03,06,16.30
2018,08,15,03,07,16.30
2018,08,15,03,08,16.30
2018,08,15,03,09,16.40
2018,08,15,03,10,16.40
2018,08,15,03,11,16.40
2018,08,15,03,12,16.40
2018,08,15,03,13,16.40
2018,08,15,03,14,16.40
2018,08,15,03,15,16.50
2018,08,15,03,16,16.50
2018,08,15,03,17,16.50
2018,08,15,03,18,16.50
2018,08,15,03,19,16.60
2018,08,15,03,20,16.60
2018,08,15,03,21,16.60
2018,08,15,03,22,16.60
2018,08,15,03,23,16.60
2018,08,15,03,24,16.60
2018,08,15,03,25,16.60
2018,08,15,03,26,16.60
2018,08,15,03,27,16.60
2018,08,15,03,28,16.60
2018,08,15,03,29,16.60
2018,08,15,03,30,16.70
2018,08,15,03,31,16.70
2018,08,15,03,32,16.70
2018,08,15,03,33,16.70
2018,08,15,03,34,16.70
2018,08,15,03,35,16.70
2018,08,15,03,36,16.70
2018,08,15,03,37,16.70
2018,08,15,03,38,16.70
2018,08,15,03,39,16.70
2018,08,15,03,40,16.70
2018,08,15,03,41,16.70
2018,08,15,03,42,16.70
2018,08,15,03,43,16.70
2018,08,15,03,44,16.70
2018,08,15,03,45,16.80
2018,08,15,03,46,16.80
2018,08,15,03,47,16.80
2018,08,15,03,48,16.80
2018,08,15,03,49,16.80
2018,08,15,03,50,16.80
2018,08,15,03,51,16.80
2018,08,15,03,52,16.80
2018,08,15,03,53,16.80
2018,08,15,03,54,16.70
2018,08,15,03,55,16.70
2018,08,15,03,56,16.70
2018,08,15,03,57,16.70
2018,08,15,03,58,16.60
2018,08,15,03,59,16.60
2018,08,15,04,00,16.60
2018,08,15,04,01,16.60
2018,08,15,04,02,16.60
2018,08,15,04,03,16.60
2018,08,15,04,04,16.60
2018,08,15,04,05,16.60
2018,08,15,04,06,16.60
2018,08,15,04,07,16.60
2018,08,15,04,08,16.60
2018,08,15,04,09,16.60
2018,08,15,04,10,16.60
2018,08,15,04,11,16.60
2018,08,15,04,12,16.50
2018,08,15,04,13,16.50
2018,08,15,04,14,16.50
2018,08,15,04,15,16.50
2018,08,15,04,16,16.50
2018,08,15,04,17,16.50
2018,08,15,04,18,16.40
2018,08,15,04,19,16.40
2018,08,15,04,20,16.40
2018,08,15,04,21,16.40
2018,08,15,04,22,16.40
2018,08,15,04,23,16.40
2018,08,15,04,24,16.40
2018,08,15,04,25,16.40
2018,08,15,04,26,16.40
2018,08,15,04,27,16.40
2018,08,15,04,28,16.40
2018,08,15,04,29,16.40
2018,08,15,04,30,16.50
2018,08,15,04,31,16.50
2018,08,15,04,32,16.50
2018,08,15,04,33,16.50
2018,08,15,04,34,16.50
2018,08,15,04,35,16.50
2018,08,15,04,36,16.50
2018,08,15,04,37,16.50
2018,08,15,04,38,16.50
2018,08,15,04,39,16.40
2018,08,15,04,40,16.40
2018,08,15,04,41,16.40
2018,08,15,04,42,16.40
2018,08,15,04,43,16.30
2018,08,15,04,44,16.30
2018,08,15,04,45,16.30
2018,08,15,04,46,16.30
2018,08,15,04,47,16.30
2018,08,15,04,48,16.20
2018,08,15,04,49,16.20
2018,08,15,04,50,16.20
2018,08,15,04,51,16.20
2018,08,15,04,52,16.10
2018,08,15,04,53,16.10
2018,08,15,04,54,16.00
2018,08,15,04,55,16.00
2018,08,15,04,56,16.00
2018,08,15,04,57,15.90
2018,08,15,04,58,15.90
2018,08,15,04,59,15.90
2018,08,15,05,00,15.90
2018,08,15,05,01,15.90
2018,08,15,05,02,15.90
2018,08,15,05,03,15.90
2018,08,15,05,04,15.90
2018,08,15,05,05,15.90
2018,08,15,05,06,15.90
2018,08,15,05,07,15.90
2018,08,15,05,08,15.90
2018,08,15,05,09,15.90
2018,08,15,05,10,15.90
2018,08,15,05,11,15.90
2018,08,15,05,12,15.90
2018,08,15,05,13,15.90
2018,08,15,05,14,15.90
2018,08,15,05,15,15.80
2018,08,15,05,16,15.80
2018,08,15,05,17,15.80
2018,08,15,05,18,15.80
2018,08,15,05,19,15.80
2018,08,15,05,20,15.80
2018,08,15,05,21,15.80
2018,08,15,05,22,15.70
2018,08,15,05,23,15.70
2018,08,15,05,24,15.70
2018,08,15,05,25,15.70
2018,08,15,05,26,15.70
2018,08,15,05,27,15.60
2018,08,15,05,28,15.60
2018,08,15,05,29,15.60
2018,08,15,05,30,15.60
2018,08,15,05,31,15.60
2018,08,15,05,32,15.60
2018,08,15,05,33,15.60
2018,08,15,05,34,15.50
2018,08,15,05,35,15.50
2018,08,15,05,36,15.50
2018,08,15,05,37,15.40
2018,08,15,05,38,15.40
2018,08,15,05,39,15.40
2018,08,15,05,40,15.40
2018,08,15,05,41,15.30
2018,08,15,05,42,15.30
2018,08,15,05,43,15.30
2018,08,15,05,44,15.20
2018,08,15,05,45,15.20
2018,08,15,05,46,15.20
2018,08,15,05,47,15.20
2018,08,15,05,48,15.20
2018,08,15,05,49,15.20
2018,08,15,05,50,15.10
2018,08,15,05,51,15.10
2018,08,15,05,52,15.10
2018,08,15,05,53,15.10
2018,08,15,05,54,15.10
2018,08,15,05,55,15.10
2018,08,15,05,56,15.10
2018,08,15,05,57,15.10
2018,08,15,05,58,15.10
2018,08,15,05,59,15.20
2018,08,15,06,00,15.20
2018,08,15,06,01,15.20
2018,08,15,06,02,15.20
2018,08,15,06,03,15.20
2018,08,15,06,04,15.20
2018,08,15,06,05,15.20
2018,08,15,06,06,15.20
2018,08,15,06,07,15.20
2018,08,15,06,08,15.20
2018,08,15,06,09,15.20
2018,08,15,06,10,15.20
2018,08,15,06,11,15.20
2018,08,15,06,12,15.30
2018,08,15,06,13,15.30
2018,08,15,06,14,15.30
2018,08,15,06,15,15.30
2018,08,15,06,16,15.30
2018,08,15,06,17,15.30
2018,08,15,06,18,15.30
2018,08,15,06,19,15.30
2018,08,15,06,20,15.30
2018,08,15,06,21,15.30
2018,08,15,06,22,15.30
2018,08,15,06,23,15.30
2018,08,15,06,24,15.30
2018,08,15,06,25,15.30
2018,08,15,06,26,15.30
2018,08,15,06,27,15.30
2018,08,15,06,28,15.30
2018,08,15,06,29,15.40
2018,08,15,06,30,15.40
2018,08,15,06,31,15.40
2018,08,15,06,32,15.40
2018,08,15,06,33,15.30
2018,08,15,06,34,15.30
2018,08,15,06,35,15.30
2018,08,15,06,36,15.30
2018,08,15,06,37,15.30
2018,08,15,06,38,15.30
2018,08,15,06,39,15.30
2018,08,15,06,40,15.30
2018,08,15,06,41,15.30
2018,08,15,06,42,15.20
2018,08,15,06,43,15.20
2018,08,15,06,44,15.20
2018,08,15,06,45,15.20
2018,08,15,06,46,15.20
2018,08,15,06,47,15.20
2018,08,15,06,48,15.20
2018,08,15,06,49,15.30
2018,08,15,06,50,15.30
2018,08,15,06,51,15.30
2018,08,15,06,52,15.30
2018,08,15,06,53,15.30
2018,08,15,06,54,15.30
2018,08,15,06,55,15.30
2018,08,15,06,56,15.30
2018,08,15,06,57,15.30
2018,08,15,06,58,15.30
2018,08,15,06,59,15.40
2018,08,15,07,00,15.40
2018,08,15,07,01,15.40
2018,08,15,07,02,15.40
2018,08,15,07,03,15.40
2018,08,15,07,04,15.40
2018,08,15,07,05,15.50
2018,08,15,07,06,15.50
2018,08,15,07,07,15.50
2018,08,15,07,08,15.50
2018,08,15,07,09,15.50
2018,08,15,07,10,15.60
2018,08,15,07,11,15.60
2018,08,15,07,12,15.60
2018,08,15,07,13,15.60
2018,08,15,07,14,15.60
2018,08,15,07,15,15.70
2018,08,15,07,16,15.70
2018,08,15,07,17,15.80
2018,08,15,07,18,15.80
2018,08,15,07,19,15.80
2018,08,15,07,20,15.90
2018,08,15,07,21,15.90
2018,08,15,07,22,15.90
2018,08,15,07,23,16.00
2018,08,15,07,24,16.00
2018,08,15,07,25,16.10
2018,08,15,07,26,16.10
2018,08,15,07,27,16.10
2018,08,15,07,28,16.20
2018,08,15,07,29,16.20
2018,08,15,07,30,16.30
2018,08,15,07,31,16.30
2018,08,15,07,32,16.30
2018,08,15,07,33,16.40
2018,08,15,07,34,16.40
2018,08,15,07,35,16.40
2018,08,15,07,36,16.50
2018,08,15,07,37,16.50
2018,08,15,07,38,16.60
2018,08,15,07,39,16.70
2018,08,15,07,40,16.70
2018,08,15,07,41,16.80
2018,08,15,07,42,16.90
2018,08,15,07,43,17.00
2018,08,15,07,44,17.00
2018,08,15,07,45,17.10
2018,08,15,07,46,17.20
2018,08,15,07,47,17.30
2018,08,15,07,48,17.40
2018,08,15,07,49,17.50
2018,08,15,07,50,17.60
2018,08,15,07,51,17.70
2018,08,15,07,52,17.80
2018,08,15,07,53,17.80
2018,08,15,07,54,17.80
2018,08,15,07,55,17.90
2018,08,15,07,56,17.90
2018,08,15,07,57,18.00
2018,08,15,07,58,18.00
2018,08,15,07,59,18.10
2018,08,15,08,00,18.10
2018,08,15,08,01,18.10
2018,08,15,08,02,18.10
2018,08,15,08,03,18.10
2018,08,15,08,04,18.10
2018,08,15,08,05,18.20
2018,08,15,08,06,18.20
2018,08,15,08,07,18.20
2018,08,15,08,08,18.20
2018,08,15,08,09,18.20
2018,08,15,08,10,18.30
2018,08,15,08,11,18.30
2018,08,15,08,12,18.30
2018,08,15,08,13,18.40
2018,08,15,08,14,18.40
2018,08,15,08,15,18.50
2018,08,15,08,16,18.50
2018,08,15,08,17,18.60
2018,08,15,08,18,18.70
2018,08,15,08,19,18.70
2018,08,15,08,20,18.80
2018,08,15,08,21,19.00
2018,08,15,08,22,19.10
2018,08,15,08,23,19.30
2018,08,15,08,24,19.40
2018,08,15,08,25,19.50
2018,08,15,08,26,19.60
2018,08,15,08,27,19.70
2018,08,15,08,28,19.80
2018,08,15,08,29,19.90
2018,08,15,08,30,20.00
2018,08,15,08,31,20.10
2018,08,15,08,32,20.20
2018,08,15,08,33,20.30
2018,08,15,08,34,20.30
2018,08,15,08,35,20.30
2018,08,15,08,36,20.30
2018,08,15,08,37,20.30
2018,08,15,08,38,20.40
2018,08,15,08,39,20.40
2018,08,15,08,40,20.40
2018,08,15,08,41,20.40
2018,08,15,08,42,20.50
2018,08,15,08,43,20.50
2018,08,15,08,44,20.50
2018,08,15,08,45,20.60
2018,08,15,08,46,20.60
2018,08,15,08,47,20.70
2018,08,15,08,48,20.70
2018,08,15,08,49,20.70
2018,08,15,08,50,20.70
2018,08,15,08,51,20.80
2018,08,15,08,52,20.80
2018,08,15,08,53,20.80
2018,08,15,08,54,20.80
2018,08,15,08,55,20.90
2018,08,15,08,56,20.90
2018,08,15,08,57,20.90
2018,08,15,08,58,20.90
2018,08,15,08,59,20.90
2018,08,15,09,00,21.00
2018,08,15,09,01,21.00
2018,08,15,09,02,21.10
2018,08,15,09,03,21.10
2018,08,15,09,04,21.20
2018,08,15,09,05,21.20
2018,08,15,09,06,21.20
2018,08,15,09,07,21.20
2018,08,15,09,08,21.30
2018,08,15,09,09,21.30
2018,08,15,09,10,21.40
2018,08,15,09,11,21.40
2018,08,15,09,12,21.40
2018,08,15,09,13,21.40
2018,08,15,09,14,21.40
2018,08,15,09,15,21.40
2018,08,15,09,16,21.40
2018,08,15,09,17,21.50
2018,08,15,09,18,21.50
2018,08,15,09,19,21.60
2018,08,15,09,20,21.60
2018,08,15,09,21,21.70
2018,08,15,09,22,21.80
2018,08,15,09,23,21.80
2018,08,15,09,24,21.80
2018,08,15,09,25,21.80
2018,08,15,09,26,21.80
2018,08,15,09,27,21.80
2018,08,15,09,28,21.70
2018,08,15,09,29,21.70
2018,08,15,09,30,21.70
2018,08,15,09,31,21.70
2018,08,15,09,32,21.70
2018,08,15,09,33,21.70
2018,08,15,09,34,21.60
2018,08,15,09,35,21.60
2018,08,15,09,36,21.70
2018,08,15,09,37,21.70
2018,08,15,09,38,21.80
2018,08,15,09,39,21.80
2018,08,15,09,40,21.80
2018,08,15,09,41,21.90
2018,08,15,09,42,21.90
2018,08,15,09,43,21.90
2018,08,15,09,44,21.80
2018,08,15,09,45,21.80
2018,08,15,09,46,21.80
2018,08,15,09,47,21.80
2018,08,15,09,48,21.80
2018,08,15,09,49,21.90
2018,08,15,09,50,21.90
2018,08,15,09,51,21.90
2018,08,15,09,52,21.90
2018,08,15,09,53,21.90
2018,08,15,09,54,21.90
2018,08,15,09,55,22.00
2018,08,15,09,56,22.00
2018,08,15,09,57,22.00
2018,08,15,09,58,21.90
2018,08,15,09,59,21.90
2018,08,15,10,00,22.00
2018,08,15,10,01,22.00
2018,08,15,10,02,22.10
2018,08,15,10,03,22.20
2018,08,15,10,04,22.20
2018,08,15,10,05,22.20
2018,08,15,10,06,22.30
2018,08,15,10,07,22.30
2018,08,15,10,08,22.30
2018,08,15,10,09,22.30
2018,08,15,10,10,22.40
2018,08,15,10,11,22.40
2018,08,15,10,12,22.50
2018,08,15,10,13,22.50
2018,08,15,10,14,22.40
2018,08,15,10,15,22.30
2018,08,15,10,16,22.30
2018,08,15,10,17,22.30
2018,08,15,10,18,22.30
2018,08,15,10,19,22.30
2018,08,15,10,20,22.30
2018,08,15,10,21,22.30
2018,08,15,10,22,22.40
2018,08,15,10,23,22.30
2018,08,15,10,24,22.30
2018,08,15,10,25,22.30
2018,08,15,10,26,22.20
2018,08,15,10,27,22.20
2018,08,15,10,28,22.10
2018,08,15,10,29,22.10
2018,08,15,10,30,22.00
2018,08,15,10,31,22.10
2018,08,15,10,32,22.20
2018,08,15,10,33,22.30
2018,08,15,10,34,22.30
2018,08,15,10,35,22.40
2018,08,15,10,36,22.50
2018,08,15,10,37,22.50
2018,08,15,10,38,22.60
2018,08,15,10,39,22.70
2018,08,15,10,40,22.80
2018,08,15,10,41,22.90
2018,08,15,10,42,23.10
2018,08,15,10,43,23.20
2018,08,15,10,44,23.20
2018,08,15,10,45,23.20
2018,08,15,10,46,23.20
2018,08,15,10,47,23.20
2018,08,15,10,48,23.20
2018,08,15,10,49,23.20
2018,08,15,10,50,23.10
2018,08,15,10,51,23.10
2018,08,15,10,52,23.00
2018,08,15,10,53,22.90
2018,08,15,10,54,23.00
2018,08,15,10,55,23.10
2018,08,15,10,56,23.10
2018,08,15,10,57,23.10
2018,08,15,10,58,23.10
2018,08,15,10,59,23.10
2018,08,15,11,00,23.20
2018,08,15,11,01,23.20
2018,08,15,11,02,23.30
2018,08,15,11,03,23.30
2018,08,15,11,04,23.30
2018,08,15,11,05,23.30
2018,08,15,11,06,23.00
2018,08,15,11,07,22.80
2018,08,15,11,08,22.80
2018,08,15,11,09,22.90
2018,08,15,11,10,22.90
2018,08,15,11,11,22.90
2018,08,15,11,12,22.90
2018,08,15,11,13,22.80
2018,08,15,11,14,22.80
2018,08,15,11,15,22.70
2018,08,15,11,16,22.70
2018,08,15,11,17,22.70
2018,08,15,11,18,22.80
2018,08,15,11,19,22.90
2018,08,15,11,20,22.90
2018,08,15,11,21,22.90
2018,08,15,11,22,22.80
2018,08,15,11,23,22.80
2018,08,15,11,24,22.90
2018,08,15,11,25,22.80
2018,08,15,11,26,22.80
2018,08,15,11,27,22.80
2018,08,15,11,28,22.80
2018,08,15,11,29,23.00
2018,08,15,11,30,23.00
2018,08,15,11,31,23.10
2018,08,15,11,32,23.20
2018,08,15,11,33,23.20
2018,08,15,11,34,23.30
2018,08,15,11,35,23.30
2018,08,15,11,36,23.30
2018,08,15,11,37,23.20
2018,08,15,11,38,23.20
2018,08,15,11,39,23.20
2018,08,15,11,40,23.20
2018,08,15,11,41,23.10
2018,08,15,11,42,23.00
2018,08,15,11,43,23.00
2018,08,15,11,44,23.00
2018,08,15,11,45,23.00
2018,08,15,11,46,23.10
2018,08,15,11,47,23.20
2018,08,15,11,48,23.30
2018,08,15,11,49,23.50
2018,08,15,11,50,23.50
2018,08,15,11,51,23.50
2018,08,15,11,52,23.30
2018,08,15,11,53,23.10
2018,08,15,11,54,23.00
2018,08,15,11,55,22.80
2018,08,15,11,56,22.80
2018,08,15,11,57,22.70
2018,08,15,11,58,22.70
2018,08,15,11,59,22.80
2018,08,15,12,00,22.90
2018,08,15,12,01,23.00
2018,08,15,12,02,23.10
2018,08,15,12,03,23.20
2018,08,15,12,04,23.30
2018,08,15,12,05,23.20
2018,08,15,12,06,23.10
2018,08,15,12,07,22.90
2018,08,15,12,08,22.90
2018,08,15,12,09,22.80
2018,08,15,12,10,22.90
2018,08,15,12,11,22.90
2018,08,15,12,12,23.10
2018,08,15,12,13,23.20
2018,08,15,12,14,23.20
2018,08,15,12,15,23.10
2018,08,15,12,16,23.00
2018,08,15,12,17,22.90
2018,08,15,12,18,22.80
2018,08,15,12,19,22.70
2018,08,15,12,20,22.60
2018,08,15,12,21,22.60
2018,08,15,12,22,22.70
2018,08,15,12,23,22.70
2018,08,15,12,24,22.80
2018,08,15,12,25,22.90
2018,08,15,12,26,22.90
2018,08,15,12,27,22.80
2018,08,15,12,28,22.70
2018,08,15,12,29,22.70
2018,08,15,12,30,22.80
2018,08,15,12,31,22.80
2018,08,15,12,32,22.90
2018,08,15,12,33,23.00
2018,08,15,12,34,23.10
2018,08,15,12,35,23.30
2018,08,15,12,36,23.40
2018,08,15,12,37,23.50
2018,08,15,12,38,23.50
2018,08,15,12,39,23.60
2018,08,15,12,40,23.50
2018,08,15,12,41,23.50
2018,08,15,12,42,23.60
2018,08,15,12,43,23.50
2018,08,15,12,44,23.50
2018,08,15,12,45,23.50
2018,08,15,12,46,23.40
2018,08,15,12,47,23.50
2018,08,15,12,48,23.60
2018,08,15,12,49,23.60
2018,08,15,12,50,23.60
2018,08,15,12,51,23.70
2018,08,15,12,52,23.70
2018,08,15,12,53,23.70
2018,08,15,12,54,23.80
2018,08,15,12,55,23.90
2018,08,15,12,56,23.90
2018,08,15,12,57,24.00
2018,08,15,12,58,23.90
2018,08,15,12,59,23.90
2018,08,15,13,00,23.80
2018,08,15,13,01,23.90
2018,08,15,13,02,23.90
2018,08,15,13,03,23.90
2018,08,15,13,04,23.90
2018,08,15,13,05,24.00
2018,08,15,13,06,24.00
2018,08,15,13,07,24.00
2018,08,15,13,08,23.80
2018,08,15,13,09,23.70
2018,08,15,13,10,23.70
2018,08,15,13,11,23.70
2018,08,15,13,12,23.80
2018,08,15,13,13,23.90
2018,08,15,13,14,24.00
2018,08,15,13,15,23.80
2018,08,15,13,16,23.70
2018,08,15,13,17,23.50
2018,08,15,13,18,23.50
2018,08,15,13,19,23.50
2018,08,15,13,20,23.50
2018,08,15,13,21,23.60
2018,08,15,13,22,23.60
2018,08,15,13,23,23.70
2018,08,15,13,24,23.70
2018,08,15,13,25,23.70
2018,08,15,13,26,23.70
2018,08,15,13,27,23.80
2018,08,15,13,28,23.80
2018,08,15,13,29,23.90
2018,08,15,13,30,23.90
2018,08,15,13,31,23.80
2018,08,15,13,32,23.80
2018,08,15,13,33,23.80
2018,08,15,13,34,23.80
2018,08,15,13,35,23.80
2018,08,15,13,36,23.90
2018,08,15,13,37,23.90
2018,08,15,13,38,24.00
2018,08,15,13,39,24.00
2018,08,15,13,40,23.90
2018,08,15,13,41,23.80
2018,08,15,13,42,23.70
2018,08,15,13,43,23.60
2018,08,15,13,44,23.60
2018,08,15,13,45,23.50
2018,08,15,13,46,23.50
2018,08,15,13,47,23.50
2018,08,15,13,48,23.60
2018,08,15,13,49,23.50
2018,08,15,13,50,23.40
2018,08,15,13,51,23.40
2018,08,15,13,52,23.30
2018,08,15,13,53,23.30
2018,08,15,13,54,23.30
2018,08,15,13,55,23.30
2018,08,15,13,56,23.30
2018,08,15,13,57,23.40
2018,08,15,13,58,23.40
2018,08,15,13,59,23.40
2018,08,15,14,00,23.30
2018,08,15,14,01,23.30
2018,08,15,14,02,23.40
2018,08,15,14,03,23.40
2018,08,15,14,04,23.40
2018,08,15,14,05,23.40
2018,08,15,14,06,23.50
2018,08,15,14,07,23.50
2018,08,15,14,08,23.60
2018,08,15,14,09,23.60
2018,08,15,14,10,23.60
2018,08,15,14,11,23.50
2018,08,15,14,12,23.50
2018,08,15,14,13,23.50
2018,08,15,14,14,23.40
2018,08,15,14,15,23.30
2018,08,15,14,16,23.30
2018,08,15,14,17,23.30
2018,08,15,14,18,23.30
2018,08,15,14,19,23.30
2018,08,15,14,20,23.40
2018,08,15,14,21,23.40
2018,08,15,14,22,23.40
2018,08,15,14,23,23.30
2018,08,15,14,24,23.40
2018,08,15,14,25,23.40
2018,08,15,14,26,23.50
2018,08,15,14,27,23.60
2018,08,15,14,28,23.60
2018,08,15,14,29,23.70
2018,08,15,14,30,23.70
2018,08,15,14,31,23.80
2018,08,15,14,32,23.80
2018,08,15,14,33,23.90
2018,08,15,14,34,23.90
2018,08,15,14,35,24.00
2018,08,15,14,36,24.00
2018,08,15,14,37,24.10
2018,08,15,14,38,24.20
2018,08,15,14,39,24.30
2018,08,15,14,40,24.30
2018,08,15,14,41,24.30
2018,08,15,14,42,24.30
2018,08,15,14,43,24.30
2018,08,15,14,44,24.40
2018,08,15,14,45,24.40
2018,08,15,14,46,24.40
2018,08,15,14,47,24.50
2018,08,15,14,48,24.40
2018,08,15,14,49,24.30
2018,08,15,14,50,24.20
2018,08,15,14,51,24.20
2018,08,15,14,52,24.20
2018,08,15,14,53,24.20
2018,08,15,14,54,24.10
2018,08,15,14,55,24.10
2018,08,15,14,56,24.00
2018,08,15,14,57,23.90
2018,08,15,14,58,23.90
2018,08,15,14,59,23.90
2018,08,15,15,00,23.90
2018,08,15,15,01,24.00
2018,08,15,15,02,24.10
2018,08,15,15,03,24.20
2018,08,15,15,04,24.30
2018,08,15,15,05,24.40
2018,08,15,15,06,24.40
2018,08,15,15,07,24.40
2018,08,15,15,08,24.40
2018,08,15,15,09,24.40
2018,08,15,15,10,24.40
2018,08,15,15,11,24.40
2018,08,15,15,12,24.40
2018,08,15,15,13,24.50
2018,08,15,15,14,24.60
2018,08,15,15,15,24.60
2018,08,15,15,16,24.60
2018,08,15,15,17,24.60
2018,08,15,15,18,24.70
2018,08,15,15,19,24.80
2018,08,15,15,20,24.90
2018,08,15,15,21,24.90
2018,08,15,15,22,24.90
2018,08,15,15,23,24.80
2018,08,15,15,24,24.80
2018,08,15,15,25,24.90
2018,08,15,15,26,25.00
2018,08,15,15,27,25.00
2018,08,15,15,28,25.10
2018,08,15,15,29,25.00
2018,08,15,15,30,25.00
2018,08,15,15,31,25.00
2018,08,15,15,32,25.10
2018,08,15,15,33,25.10
2018,08,15,15,34,25.10
2018,08,15,15,35,25.10
2018,08,15,15,36,25.10
2018,08,15,15,37,25.10
2018,08,15,15,38,25.10
2018,08,15,15,39,25.10
2018,08,15,15,40,25.10
2018,08,15,15,41,25.10
2018,08,15,15,42,25.10
2018,08,15,15,43,25.10
2018,08,15,15,44,25.00
2018,08,15,15,45,24.80
2018,08,15,15,46,24.70
2018,08,15,15,47,24.70
2018,08,15,15,48,24.80
2018,08,15,15,49,24.80
2018,08,15,15,50,24.80
2018,08,15,15,51,25.00
2018,08,15,15,52,25.10
2018,08,15,15,53,25.10
2018,08,15,15,54,25.20
2018,08,15,15,55,25.20
2018,08,15,15,56,25.30
2018,08,15,15,57,25.40
2018,08,15,15,58,25.40
2018,08,15,15,59,25.50
2018,08,15,16,00,25.50
2018,08,15,16,01,25.60
2018,08,15,16,02,25.70
2018,08,15,16,03,25.70
2018,08,15,16,04,25.80
2018,08,15,16,05,25.80
2018,08,15,16,06,25.70
2018,08,15,16,07,25.70
2018,08,15,16,08,25.70
2018,08,15,16,09,25.70
2018,08,15,16,10,25.80
2018,08,15,16,11,25.80
2018,08,15,16,12,25.80
2018,08,15,16,13,25.90
2018,08,15,16,14,26.00
2018,08,15,16,15,26.00
2018,08,15,16,16,26.00
2018,08,15,16,17,26.10
2018,08,15,16,18,26.10
2018,08,15,16,19,26.10
2018,08,15,16,20,26.10
2018,08,15,16,21,26.00
2018,08,15,16,22,26.00
2018,08,15,16,23,26.00
2018,08,15,16,24,26.10
2018,08,15,16,25,26.10
2018,08,15,16,26,26.20
2018,08,15,16,27,26.20
2018,08,15,16,28,26.20
2018,08,15,16,29,26.30
2018,08,15,16,30,26.40
2018,08,15,16,31,26.50
2018,08,15,16,32,26.50
2018,08,15,16,33,26.50
2018,08,15,16,34,26.50
2018,08,15,16,35,26.60
2018,08,15,16,36,26.70
2018,08,15,16,37,26.80
2018,08,15,16,38,26.90
2018,08,15,16,39,27.00
2018,08,15,16,40,27.00
2018,08,15,16,41,27.00
2018,08,15,16,42,27.00
2018,08,15,16,43,27.10
2018,08,15,16,44,27.10
2018,08,15,16,45,27.10
2018,08,15,16,46,27.10
2018,08,15,16,47,27.10
2018,08,15,16,48,27.10
2018,08,15,16,49,27.10
2018,08,15,16,50,27.10
2018,08,15,16,51,27.10
2018,08,15,16,52,27.00
2018,08,15,16,53,26.90
2018,08,15,16,54,26.80
2018,08,15,16,55,26.90
2018,08,15,16,56,26.90
2018,08,15,16,57,26.90
2018,08,15,16,58,26.90
2018,08,15,16,59,26.90
2018,08,15,17,00,26.90
2018,08,15,17,01,26.90
2018,08,15,17,02,27.00
2018,08,15,17,03,27.00
2018,08,15,17,04,27.00
2018,08,15,17,05,27.00
2018,08,15,17,06,26.90
2018,08,15,17,07,26.90
2018,08,15,17,08,27.00
2018,08,15,17,09,27.00
2018,08,15,17,10,27.00
2018,08,15,17,11,26.80
2018,08,15,17,12,26.70
2018,08,15,17,13,26.60
2018,08,15,17,14,26.60
2018,08,15,17,15,26.50
2018,08,15,17,16,26.50
2018,08,15,17,17,26.40
2018,08,15,17,18,26.30
2018,08,15,17,19,26.30